Location: Ajisawe
(8.4333°N, 4.3833°E)
Time: 00:07:24
(UTC+00:00)

A-11 Canister half - Pass Details

Date: 19 April 2021
Orbit: 1514 x 1685 km, 47.2° (Epoch: 15 May)

Event Time Altitude Azimuth Distance (km) Brightness Sun altitude
Rises 03:13:18 0° 339° (NNW) 4,862 11.6 -33.8°
Reaches altitude 10° 03:17:31 10° 354° (N) 3,900 11.2 -32.8°
Maximum altitude 03:24:45 22° 41° (NE) 3,083 11.1 -31.1°
Drops below altitude 10° 03:32:01 10° 88° (E) 3,944 12.0 -29.4°
Sets 03:36:15 0° 103° (ESE) 4,932 12.5 -28.4°
